• In Deutschland
  • Länderverzeichnis
  • Für 7 Tage
  • Wassertemperatur
  • Satellitenkarten
  • Wetterkarte
  • Widgets
  • user-avatar
    Anmelden

    Stündliche Wetter Herāt

    Heute, 22 Mai, Dienstag

    Zeit Temperatur Niederschläge Wind Luftdruck Luftfeuchtigkeit
    00:00 +19°C° 0 mm 3 m/S 681 mmHg 28%
    01:00 +19°C° 0 mm 3 m/S 680 mmHg 28%
    02:00 +18°C° 0 mm 2 m/S 680 mmHg 29%
    03:00 +18°C° 0 mm 2 m/S 680 mmHg 30%
    04:00 +18°C° 0 mm 2 m/S 680 mmHg 31%
    05:00 +19°C° 0 mm 2 m/S 680 mmHg 29%
    06:00 +20°C° 0 mm 2 m/S 681 mmHg 27%
    07:00 +21°C° 0 mm 2 m/S 681 mmHg 26%
    08:00 +22°C° 0 mm 3 m/S 681 mmHg 24%
    09:00 +23°C° 0 mm 4 m/S 682 mmHg 22%
    10:00 +26°C° 0 mm 4 m/S 682 mmHg 20%
    11:00 +26°C° 0 mm 5 m/S 682 mmHg 19%
    12:00 +27°C° 0 mm 5 m/S 682 mmHg 18%
    13:00 +28°C° 0 mm 6 m/S 682 mmHg 17%
    14:00 +28°C° 0 mm 6 m/S 681 mmHg 18%
    15:00 +28°C° 0 mm 6 m/S 681 mmHg 18%
    16:00 +28°C° 0 mm 7 m/S 681 mmHg 18%
    17:00 +27°C° 0 mm 6 m/S 681 mmHg 20%
    18:00 +26°C° 0 mm 5 m/S 681 mmHg 21%
    19:00 +25°C° 0 mm 5 m/S 681 mmHg 23%
    20:00 +23°C° 0 mm 4 m/S 681 mmHg 24%
    21:00 +23°C° 0 mm 4 m/S 681 mmHg 26%
    22:00 +22°C° 0 mm 3 m/S 681 mmHg 27%
    23:00 +21°C° 0 mm 3 m/S 681 mmHg 28%

    Morgen, 23 Mai, Mittwoch

    Zeit Temperatur Niederschläge Wind Luftdruck Luftfeuchtigkeit
    00:00 +21°C° 0 mm 3 m/S 681 mmHg 28%
    01:00 +20°C° 0 mm 3 m/S 680 mmHg 29%
    02:00 +20°C° 0 mm 3 m/S 680 mmHg 29%
    03:00 +19°C° 0 mm 3 m/S 680 mmHg 30%
    04:00 +19°C° 0 mm 3 m/S 680 mmHg 30%
    05:00 +20°C° 0 mm 3 m/S 681 mmHg 28%
    06:00 +21°C° 0 mm 4 m/S 681 mmHg 27%
    07:00 +22°C° 0 mm 5 m/S 682 mmHg 25%
    08:00 +24°C° 0 mm 6 m/S 682 mmHg 23%
    09:00 +26°C° 0 mm 7 m/S 682 mmHg 21%
    10:00 +27°C° 0 mm 8 m/S 682 mmHg 19%
    11:00 +28°C° 0 mm 8 m/S 682 mmHg 18%
    12:00 +29°C° 0 mm 9 m/S 682 mmHg 17%
    13:00 +31°C° 0 mm 9 m/S 682 mmHg 16%
    14:00 +29°C° 0 mm 9 m/S 681 mmHg 16%
    15:00 +29°C° 0 mm 10 m/S 681 mmHg 15%
    16:00 +29°C° 0 mm 10 m/S 680 mmHg 15%
    17:00 +28°C° 0 mm 9 m/S 680 mmHg 16%
    18:00 +27°C° 0 mm 8 m/S 680 mmHg 17%
    19:00 +26°C° 0 mm 7 m/S 680 mmHg 18%
    20:00 +24°C° 0 mm 7 m/S 680 mmHg 18%
    21:00 +23°C° 0 mm 6 m/S 680 mmHg 17%
    22:00 +22°C° 0 mm 5 m/S 680 mmHg 17%
    23:00 +22°C° 0 mm 5 m/S 680 mmHg 18%

    übermorgen, 24 Mai, Donnerstag

    Zeit Temperatur Niederschläge Wind Luftdruck Luftfeuchtigkeit
    00:00 +21°C° 0 mm 4 m/S 679 mmHg 18%
    01:00 +20°C° 0 mm 4 m/S 678 mmHg 19%
    02:00 +20°C° 0 mm 4 m/S 678 mmHg 20%
    03:00 +20°C° 0 mm 4 m/S 678 mmHg 21%
    04:00 +19°C° 0 mm 4 m/S 678 mmHg 22%
    05:00 +20°C° 0 mm 4 m/S 678 mmHg 22%
    06:00 +21°C° 0 mm 4 m/S 678 mmHg 23%
    07:00 +22°C° 0 mm 4 m/S 679 mmHg 23%
    08:00 +23°C° 0 mm 5 m/S 679 mmHg 21%
    09:00 +26°C° 0 mm 6 m/S 679 mmHg 19%
    10:00 +28°C° 0 mm 6 m/S 679 mmHg 17%
    11:00 +28°C° 0 mm 6 m/S 679 mmHg 17%
    12:00 +29°C° 0 mm 6 m/S 679 mmHg 16%
    13:00 +30°C° 0 mm 6 m/S 679 mmHg 15%
    14:00 +30°C° 0 mm 6 m/S 678 mmHg 15%
    15:00 +30°C° 0 mm 6 m/S 678 mmHg 15%
    16:00 +30°C° 0 mm 6 m/S 677 mmHg 15%
    17:00 +29°C° 0 mm 6 m/S 677 mmHg 18%
    18:00 +28°C° 0 mm 6 m/S 677 mmHg 20%
    19:00 +27°C° 0 mm 5 m/S 677 mmHg 23%
    20:00 +26°C° 0 mm 5 m/S 677 mmHg 25%
    21:00 +25°C° 0 mm 4 m/S 677 mmHg 27%
    22:00 +23°C° 0 mm 4 m/S 677 mmHg 29%
    23:00 +24°C° 0 mm 3 m/S 677 mmHg 30%

    25 Mai, Freitag

    Zeit Temperatur Niederschläge Wind Luftdruck Luftfeuchtigkeit
    00:00 +22°C° 0 mm 3 m/S 677 mmHg 31%
    01:00 +21°C° 0 mm 2 m/S 676 mmHg 32%
    02:00 +21°C° 0 mm 2 m/S 676 mmHg 33%
    03:00 +20°C° 0 mm 2 m/S 676 mmHg 33%
    04:00 +20°C° 0 mm 2 m/S 676 mmHg 34%
    05:00 +22°C° 0 mm 1 m/S 677 mmHg 31%
    06:00 +23°C° 0 mm 1 m/S 677 mmHg 28%
    07:00 +24°C° 0 mm 1 m/S 678 mmHg 25%
    08:00 +26°C° 0 mm 1 m/S 678 mmHg 22%
    09:00 +27°C° 0 mm 2 m/S 678 mmHg 19%
    10:00 +28°C° 0 mm 2 m/S 678 mmHg 15%
    11:00 +30°C° 0 mm 2 m/S 678 mmHg 14%
    12:00 +31°C° 0 mm 3 m/S 678 mmHg 12%
    13:00 +33°C° 0 mm 3 m/S 678 mmHg 11%
    14:00 +33°C° 0 mm 3 m/S 678 mmHg 10%
    15:00 +33°C° 0 mm 3 m/S 677 mmHg 10%
    16:00 +33°C° 0 mm 3 m/S 677 mmHg 9%
    17:00 +31°C° 0 mm 3 m/S 677 mmHg 11%
    18:00 +30°C° 0 mm 2 m/S 677 mmHg 12%
    19:00 +29°C° 0 mm 1 m/S 677 mmHg 13%
    20:00 +28°C° 0 mm 2 m/S 677 mmHg 14%
    21:00 +28°C° 0 mm 2 m/S 677 mmHg 14%
    22:00 +27°C° 0 mm 3 m/S 677 mmHg 14%
    23:00 +26°C° 0 mm 3 m/S 676 mmHg 15%

    26 Mai, Samstag

    Zeit Temperatur Niederschläge Wind Luftdruck Luftfeuchtigkeit
    00:00 +26°C° 0 mm 3 m/S 676 mmHg 16%
    01:00 +25°C° 0 mm 3 m/S 676 mmHg 16%
    02:00 +25°C° 0 mm 3 m/S 676 mmHg 17%
    03:00 +25°C° 0 mm 3 m/S 676 mmHg 18%
    04:00 +24°C° 0 mm 3 m/S 676 mmHg 19%
    05:00 +26°C° 0 mm 3 m/S 676 mmHg 19%
    06:00 +27°C° 0 mm 3 m/S 677 mmHg 18%
    07:00 +28°C° 0 mm 2 m/S 678 mmHg 18%
    08:00 +29°C° 0 mm 3 m/S 678 mmHg 16%
    09:00 +31°C° 0 mm 3 m/S 678 mmHg 15%
    10:00 +34°C° 0 mm 3 m/S 678 mmHg 14%
    11:00 +34°C° 0 mm 4 m/S 678 mmHg 13%
    12:00 +35°C° 0 mm 5 m/S 678 mmHg 12%
    13:00 +36°C° 0 mm 5 m/S 678 mmHg 12%
    14:00 +36°C° 0 mm 5 m/S 678 mmHg 12%
    15:00 +36°C° 0 mm 5 m/S 677 mmHg 12%
    16:00 +36°C° 0 mm 4 m/S 677 mmHg 12%
    17:00 +35°C° 0 mm 4 m/S 677 mmHg 14%
    18:00 +33°C° 0 mm 3 m/S 677 mmHg 17%
    19:00 +31°C° 0 mm 2 m/S 677 mmHg 19%
    20:00 +31°C° 0 mm 2 m/S 677 mmHg 19%
    21:00 +30°C° 0 mm 2 m/S 678 mmHg 20%
    22:00 +29°C° 0 mm 3 m/S 678 mmHg 20%
    23:00 +29°C° 0 mm 3 m/S 678 mmHg 21%

    27 Mai, Sonntag

    Zeit Temperatur Niederschläge Wind Luftdruck Luftfeuchtigkeit
    00:00 +28°C° 0 mm 3 m/S 677 mmHg 21%
    01:00 +27°C° 0 mm 2 m/S 677 mmHg 22%
    02:00 +27°C° 0 mm 2 m/S 677 mmHg 23%
    03:00 +27°C° 0 mm 2 m/S 677 mmHg 23%
    04:00 +26°C° 0 mm 2 m/S 677 mmHg 23%
    05:00 +27°C° 0 mm 2 m/S 678 mmHg 22%
    06:00 +28°C° 0 mm 2 m/S 679 mmHg 21%
    07:00 +29°C° 0 mm 2 m/S 679 mmHg 20%
    08:00 +31°C° 0 mm 3 m/S 680 mmHg 18%
    09:00 +33°C° 0 mm 3 m/S 680 mmHg 16%
    10:00 +34°C° 0 mm 3 m/S 680 mmHg 15%
    11:00 +35°C° 0 mm 4 m/S 680 mmHg 14%
    12:00 +36°C° 0 mm 5 m/S 680 mmHg 14%
    13:00 +38°C° 0 mm 6 m/S 680 mmHg 13%
    14:00 +36°C° 0 mm 7 m/S 680 mmHg 14%
    15:00 +37°C° 0 mm 8 m/S 680 mmHg 14%
    16:00 +37°C° 0 mm 9 m/S 680 mmHg 14%
    17:00 +34°C° 0 mm 9 m/S 680 mmHg 16%
    18:00 +33°C° 0 mm 9 m/S 680 mmHg 18%
    19:00 +32°C° 0 mm 10 m/S 680 mmHg 19%
    20:00 +29°C° 0 mm 10 m/S 681 mmHg 22%
    21:00 +28°C° 0 mm 10 m/S 681 mmHg 25%
    22:00 +26°C° 0 mm 10 m/S 681 mmHg 29%
    23:00 +26°C° 0 mm 10 m/S 681 mmHg 31%
    Mehr zeigen